Location: Los Gatos B&B
(42.6926°N, 77.0646°W)
Time: 07:48:56
(UTC-04:00)

Amateur Radio Satellites - All Passes

Search period start: 01 November 2014 07:18
Search period end: 02 November 2014 06:18
Location: Los Gatos B&B, 42.6926°N, 77.0646°W

Satellite Date Start Highest point End Downlink Frequencies (MHz)
Time Altitude Azimuth
Uosat F 01 Nov 07:22:03 07:24:44 15° 301° (WNW) 07:27:25 435.120 FM
JAS-2 01 Nov 07:30:20 07:37:55 54° 292° (WNW) 07:45:17 435.800 - 435.900 CW/SSB, 435.910 FM
MaSat-1 01 Nov 07:32:41 07:35:05 40° 60° (ENE) 07:37:20 437.345 MHz
AO-7 01 Nov 07:44:01 07:50:07 24° 309° (NW) 07:56:14 29.400 - 29.500 MHz
Hamsat 01 Nov 08:02:19 08:05:34 22° 293° (WNW) 08:08:50 145.90 MHz
SO-67 01 Nov 08:19:27 08:22:55 88° 278° (W) 08:26:22 435.3500 MHz FM
RS-15 01 Nov 09:05:38 09:12:27 19° 262° (W) 09:19:28 29.354 - 29.394 USB, Beacon 29.352 USB
KITSAT 1 01 Nov 09:11:32 09:12:51 10° 97° (E) 09:14:10 435.175 FM
JAS-2 01 Nov 09:18:22 09:21:12 12° 312° (NW) 09:24:03 435.800 - 435.900 CW/SSB, 435.910 FM
HO-68 01 Nov 09:18:29 09:24:43 31° 95° (E) 09:30:53 435.675 MHz FM
PCSat 01 Nov 09:21:32 09:22:09 10° 31° (NNE) 09:22:46 145.825 MHz
ISS 01 Nov 09:51:46 09:54:43 30° 137° (SE) 09:57:41 145.800 FM
UKube-1 01 Nov 10:12:08 10:15:48 26° 96° (E) 10:19:26 145.840 MHz, 145.915 MHz
ZACube-1 01 Nov 10:23:52 10:26:06 14° 91° (E) 10:28:18 437.345 MHz
Sapphire 01 Nov 10:40:31 10:45:15 29° 48° (NE) 10:49:57 437.095 MHz 1200 baud AX-25 AFSK
Oscar 11 01 Nov 10:45:52 10:50:09 61° 101° (E) 10:54:24 145.825 FM, Beacon 2401.500 USB
KITSAT 1 01 Nov 10:58:42 11:06:36 62° 115° (ESE) 11:14:32 435.175 FM
SO-50 01 Nov 10:59:45 11:03:56 40° 116° (ESE) 11:08:16 436.795 FM
PCSat 01 Nov 11:01:52 11:07:04 44° 53° (NE) 11:12:13 145.825 MHz
FUNcube-1 01 Nov 11:05:09 11:09:06 40° 98° (E) 11:13:00 145.950 - 145.970 MHz USB
HO-68 01 Nov 11:05:44 11:12:41 54° 293° (WNW) 11:19:36 435.675 MHz FM
ISS 01 Nov 11:28:12 11:31:21 39° 335° (NNW) 11:34:31 145.800 FM
UOSAT-12 01 Nov 11:42:25 11:43:05 10° 106° (ESE) 11:43:46 437.025 FM, 437.400 FM
UKube-1 01 Nov 11:48:09 11:51:58 30° 292° (WNW) 11:55:45 145.840 MHz, 145.915 MHz
ZACube-1 01 Nov 11:58:45 12:02:48 49° 287° (WNW) 12:06:48 437.345 MHz
Oscar 19 01 Nov 12:14:12 12:16:13 12° 58° (ENE) 12:18:15 437.125 CW, 437.150 USB
Oscar 11 01 Nov 12:23:39 12:25:50 14° 298° (WNW) 12:28:00 145.825 FM, Beacon 2401.500 USB
Sapphire 01 Nov 12:23:40 12:28:52 47° 247° (WSW) 12:34:01 437.095 MHz 1200 baud AX-25 AFSK
SO-50 01 Nov 12:40:42 12:44:37 28° 316° (NW) 12:48:38 436.795 FM
FUNcube-1 01 Nov 12:42:19 12:45:11 18° 295° (WNW) 12:48:01 145.950 - 145.970 MHz USB
PCSat 01 Nov 12:45:40 12:50:16 29° 251° (WSW) 12:54:50 145.825 MHz
AO-27 01 Nov 12:53:02 12:55:05 12° 57° (ENE) 12:57:09 436.795 MHz FM
KITSAT 1 01 Nov 12:55:08 13:02:27 36° 317° (NW) 13:09:49 435.175 FM
HO-68 01 Nov 12:56:51 12:58:48 11° 314° (NW) 13:00:45 435.675 MHz FM
Oscar 16 01 Nov 12:58:29 13:02:58 31° 67° (ENE) 13:07:27 437.025 USB, Beacon 2401.1428
JAS-1B 01 Nov 13:02:39 13:07:40 33° 65° (ENE) 13:12:47 435.800 - 435.900 CW/SSB
ISS 01 Nov 13:06:19 13:08:42 18° 354° (N) 13:11:05 145.800 FM
Gurwin Techsat 1B 01 Nov 13:15:36 13:16:23 10° 55° (NE) 13:17:11 435.225 FM
UOSAT-12 01 Nov 13:17:48 13:22:26 88° 125° (SE) 13:27:11 437.025 FM, 437.400 FM
AO-Echo 01 Nov 13:25:22 13:29:38 28° 65° (ENE) 13:34:01 ?
Uribyol 2 01 Nov 13:33:22 13:37:48 29° 65° (ENE) 13:42:15 436.500 FM
ITAMSAT 1 01 Nov 13:41:26 13:46:00 32° 66° (ENE) 13:50:36 435.822 SSB
Saudisat 1A 01 Nov 13:44:27 13:48:16 27° 45° (NE) 13:52:04 436.775 MHz
Oscar 19 01 Nov 13:49:38 13:54:47 88° 75° (ENE) 13:59:57 437.125 CW, 437.150 USB
AO-27 01 Nov 14:28:33 14:33:47 85° 75° (ENE) 14:39:03 436.795 MHz FM
Oscar 16 01 Nov 14:37:37 14:42:14 33° 263° (W) 14:46:53 437.025 USB, Beacon 2401.1428
ISS 01 Nov 14:43:32 14:46:14 22° 15° (NNE) 14:48:57 145.800 FM
Gurwin Techsat 1B 01 Nov 14:50:07 14:55:23 71° 73° (ENE) 15:00:42 435.225 FM
JAS-1B 01 Nov 14:53:20 14:58:25 32° 264° (W) 15:03:31 435.800 - 435.900 CW/SSB
TMSAT-1 01 Nov 14:55:50 15:01:02 60° 72° (ENE) 15:06:16 436.925 FM
KITSAT 1 01 Nov 14:56:28 15:00:41 15° 344° (NNW) 15:04:55 435.175 FM
AO-7 01 Nov 14:58:49 15:05:41 31° 55° (NE) 15:12:34 29.400 - 29.500 MHz
UOSAT-12 01 Nov 15:00:14 15:03:16 17° 323° (NW) 15:06:19 437.025 FM, 437.400 FM
AO-Echo 01 Nov 15:03:38 15:08:14 37° 263° (W) 15:13:01 ?
Uribyol 2 01 Nov 15:12:18 15:17:07 38° 262° (W) 15:21:59 436.500 FM
Uosat F 01 Nov 15:19:26 15:22:21 16° 60° (ENE) 15:25:16 435.120 FM
ITAMSAT 1 01 Nov 15:20:43 15:25:25 34° 263° (W) 15:30:09 435.822 SSB
Saudisat 1A 01 Nov 15:23:49 15:27:55 38° 243° (WSW) 15:31:59 436.775 MHz
Oscar 19 01 Nov 15:33:26 15:34:48 11° 272° (W) 15:36:09 437.125 CW, 437.150 USB
JAS-2 01 Nov 16:00:41 16:04:43 17° 53° (NE) 16:09:00 435.800 - 435.900 CW/SSB, 435.910 FM
AO-27 01 Nov 16:12:03 16:13:56 12° 272° (W) 16:15:51 436.795 MHz FM
ISS 01 Nov 16:19:57 16:23:18 85° 34° (NNE) 16:26:38 145.800 FM
Gurwin Techsat 1B 01 Nov 16:32:54 16:35:52 15° 270° (W) 16:38:51 435.225 FM
TMSAT-1 01 Nov 16:37:48 16:41:20 18° 269° (W) 16:44:55 436.925 FM
AO-7 01 Nov 16:49:40 16:57:52 68° 255° (WSW) 17:06:09 29.400 - 29.500 MHz
Uosat F 01 Nov 16:55:31 17:00:32 72° 257° (WSW) 17:05:36 435.120 FM
KITSAT 1 01 Nov 16:56:01 17:00:16 15° 16° (NNE) 17:04:30 435.175 FM
Hamsat 01 Nov 17:20:14 17:23:44 26° 69° (ENE) 17:27:15 145.90 MHz
OPAL 01 Nov 17:29:23 17:32:29 16° 94° (E) 17:35:34 ?
JAS-2 01 Nov 17:42:07 17:48:29 82° 74° (ENE) 17:55:45 435.800 - 435.900 CW/SSB, 435.910 FM
SO-50 01 Nov 17:51:52 17:53:13 11° 30° (NNE) 17:54:34 436.795 FM
ISS 01 Nov 17:58:06 17:59:32 12° 230° (SW) 18:00:58 145.800 FM
AO-7 01 Nov 18:49:24 18:52:09 12° 274° (W) 18:54:55 29.400 - 29.500 MHz
KITSAT 1 01 Nov 18:51:06 18:58:29 37° 44° (NE) 19:05:48 435.175 FM
SO-67 01 Nov 18:52:43 18:55:46 31° 72° (ENE) 18:58:51 435.3500 MHz FM
Hamsat 01 Nov 18:56:06 18:59:37 26° 265° (W) 19:03:10 145.90 MHz
OPAL 01 Nov 19:06:52 19:11:45 59° 290° (WNW) 19:16:36 ?
RS-15 01 Nov 19:10:52 19:15:19 13° 95° (E) 19:19:44 29.354 - 29.394 USB, Beacon 29.352 USB
STRAND 1 01 Nov 19:26:36 19:31:17 34° 97° (E) 19:35:55 ?
SO-50 01 Nov 19:30:14 19:34:56 48° 51° (NE) 19:39:40 436.795 FM
JAS-2 01 Nov 19:30:23 19:34:32 18° 275° (W) 19:38:59 435.800 - 435.900 CW/SSB, 435.910 FM
HO-68 01 Nov 19:48:35 19:54:18 27° 58° (ENE) 20:00:02 435.675 MHz FM
UOSAT-12 01 Nov 20:07:43 20:10:46 17° 37° (NE) 20:13:48 437.025 FM, 437.400 FM
Oscar 10/S400 01 Nov 20:12:01 20:44:41 52° 196° (SSW) 03:59:34 145.825 - 145.975 CW/USB, Beacon 145.810 USB
AO-40 01 Nov 20:25:14 22:37:46 29° 210° (SSW) 01:54:21 Beacon 2401.320
SO-67 01 Nov 20:26:49 20:28:50 15° 268° (W) 20:30:50 435.3500 MHz FM
KITSAT 1 01 Nov 20:46:23 20:54:19 61° 245° (WSW) 21:02:12 435.175 FM
STRAND 1 01 Nov 21:05:54 21:10:23 31° 294° (WNW) 21:14:50 ?
UKube-1 01 Nov 21:08:24 21:11:59 26° 67° (ENE) 21:15:36 145.840 MHz, 145.915 MHz
MaSat-1 01 Nov 21:09:31 21:11:05 12° 106° (ESE) 21:12:36 437.345 MHz
SO-50 01 Nov 21:11:24 21:15:13 23° 248° (WSW) 21:19:04 436.795 FM
RS-15 01 Nov 21:14:32 21:25:21 67° 116° (ESE) 21:36:07 29.354 - 29.394 USB, Beacon 29.352 USB
ZACube-1 01 Nov 21:21:17 21:23:50 15° 63° (ENE) 21:26:23 437.345 MHz
HO-68 01 Nov 21:34:20 21:41:26 66° 257° (WSW) 21:48:37 435.675 MHz FM
Oscar 11 01 Nov 21:41:27 21:45:38 51° 73° (ENE) 21:49:49 145.825 FM, Beacon 2401.500 USB
UOSAT-12 01 Nov 21:46:50 21:51:35 88° 237° (WSW) 21:56:14 437.025 FM, 437.400 FM
FUNcube-1 01 Nov 22:01:54 22:06:03 37° 71° (ENE) 22:10:08 145.950 - 145.970 MHz USB
MaSat-1 01 Nov 22:42:27 22:46:09 48° 299° (WNW) 22:49:29 437.345 MHz
UKube-1 01 Nov 22:44:13 22:48:03 30° 263° (W) 22:51:56 145.840 MHz, 145.915 MHz
KITSAT 1 01 Nov 22:47:12 22:48:02 10° 264° (W) 22:48:53 435.175 FM
ZACube-1 01 Nov 22:55:20 22:59:47 58° 259° (W) 23:04:11 437.345 MHz
Oscar 11 01 Nov 23:19:43 23:22:07 15° 269° (W) 23:24:31 145.825 FM, Beacon 2401.500 USB
RS-15 01 Nov 23:28:10 23:38:21 42° 321° (NW) 23:48:40 29.354 - 29.394 USB, Beacon 29.352 USB
HO-68 01 Nov 23:29:36 23:30:26 10° 275° (W) 23:31:16 435.675 MHz FM
UOSAT-12 01 Nov 23:30:16 23:30:57 10° 254° (WSW) 23:31:38 437.025 FM, 437.400 FM
FUNcube-1 01 Nov 23:39:05 23:42:31 21° 266° (W) 23:45:56 145.950 - 145.970 MHz USB
Sapphire 02 Nov 01:24:24 01:28:14 20° 106° (ESE) 01:32:06 437.095 MHz 1200 baud AX-25 AFSK
PCSat 02 Nov 01:44:44 01:49:30 33° 110° (ESE) 01:54:18 145.825 MHz
RS-15 02 Nov 01:46:33 01:54:44 23° 355° (N) 01:03:04 29.354 - 29.394 USB, Beacon 29.352 USB
Oscar 19 02 Nov 01:00:55 01:05:21 29° 95° (E) 01:09:46 437.125 CW, 437.150 USB
JAS-1B 02 Nov 01:32:58 01:40:09 61° 102° (ESE) 01:48:43 435.800 - 435.900 CW/SSB
AO-27 02 Nov 01:41:22 01:45:52 29° 95° (E) 01:50:19 436.795 MHz FM
Oscar 16 02 Nov 01:47:49 01:52:58 81° 103° (ESE) 01:58:05 437.025 USB, Beacon 2401.1428
Sapphire 02 Nov 02:05:50 02:11:10 60° 304° (WNW) 02:16:34 437.095 MHz 1200 baud AX-25 AFSK
Gurwin Techsat 1B 02 Nov 02:06:07 02:10:34 27° 94° (E) 02:14:59 435.225 FM
AO-Echo 02 Nov 02:09:28 02:14:48 70° 102° (ESE) 02:20:02 ?
TMSAT-1 02 Nov 02:11:39 02:15:44 22° 93° (E) 02:19:48 436.925 FM
Uribyol 2 02 Nov 02:23:46 02:28:59 74° 103° (ESE) 02:34:09 436.500 FM
PCSat 02 Nov 02:27:47 02:32:49 39° 309° (NW) 02:37:54 145.825 MHz
ITAMSAT 1 02 Nov 02:32:09 02:37:25 82° 104° (ESE) 02:42:37 435.822 SSB
Oscar 19 02 Nov 02:40:05 02:44:43 35° 292° (WNW) 02:49:19 437.125 CW, 437.150 USB
RS-15 02 Nov 03:02:08 03:11:50 33° 30° (NNE) 03:21:47 29.354 - 29.394 USB, Beacon 29.352 USB
AO-27 02 Nov 03:20:38 03:25:25 37° 292° (WNW) 03:30:10 436.795 MHz FM
JAS-1B 02 Nov 03:24:26 03:30:27 31° 296° (WNW) 03:37:22 435.800 - 435.900 CW/SSB
Oscar 16 02 Nov 03:29:02 03:31:38 14° 301° (WNW) 03:34:14 437.025 USB, Beacon 2401.1428
OPAL 02 Nov 03:44:22 03:48:56 34° 65° (ENE) 03:53:28 ?
Gurwin Techsat 1B 02 Nov 03:45:41 03:50:39 41° 291° (WNW) 03:55:35 435.225 FM
AO-Echo 02 Nov 03:49:35 03:52:57 17° 300° (WNW) 03:56:17 ?
AO-7 02 Nov 03:50:27 03:58:12 41° 99° (E) 04:05:54 29.400 - 29.500 MHz
TMSAT-1 02 Nov 03:50:48 03:55:54 48° 290° (WNW) 04:00:57 436.925 FM
JAS-2 02 Nov 03:53:04 03:56:57 14° 83° (E) 04:00:45 435.800 - 435.900 CW/SSB, 435.910 FM
Sapphire 02 Nov 03:53:18 03:55:46 13° 325° (NW) 03:58:15 437.095 MHz 1200 baud AX-25 AFSK
Uosat F 02 Nov 04:02:46 04:07:19 33° 97° (E) 04:11:49 435.120 FM
Uribyol 2 02 Nov 04:04:47 04:07:50 16° 301° (WNW) 04:10:52 436.500 FM
ITAMSAT 1 02 Nov 04:13:29 04:16:12 14° 302° (WNW) 04:18:54 435.822 SSB
Saudisat 1A 02 Nov 04:30:26 04:34:36 44° 118° (ESE) 04:38:48 436.775 MHz
RS-15 02 Nov 05:14:42 05:25:56 86° 57° (ENE) 05:37:39 29.354 - 29.394 USB, Beacon 29.352 USB
OPAL 02 Nov 05:23:21 05:27:48 30° 262° (W) 05:32:14 ?
JAS-2 02 Nov 05:35:16 05:43:11 74° 102° (ESE) 05:50:45 435.800 - 435.900 CW/SSB, 435.910 FM
Hamsat 02 Nov 05:40:01 05:44:07 48° 99° (E) 05:48:14 145.90 MHz
Uosat F 02 Nov 05:41:37 05:46:01 31° 294° (WNW) 05:50:23 435.120 FM
STRAND 1 02 Nov 05:43:07 05:48:06 53° 71° (ENE) 05:53:07 ?
AO-7 02 Nov 05:43:11 05:51:03 49° 298° (WNW) 05:58:56 29.400 - 29.500 MHz
MaSat-1 02 Nov 05:51:13 05:52:55 16° 54° (NE) 05:54:33 437.345 MHz
Saudisat 1A 02 Nov 06:10:46 06:14:21 24° 316° (NW) 06:17:58 436.775 MHz
